User: anonymous   Login
Location: Unspecified
(46.6399°N, 0.0000°E)
Time: 06:07:19
(UTC+00:00)
Language:

Iridium 71 - Orbit

View from above orbital plane
View from above orbital plane
View from above satellite
View from above satellite

Ground track
Ground track

The orbit is defined by the following mean orbital elements,

1 25320U          26088.19602525 +.00000000 +00000-0 +14098-3 0 00004
2 25320  86.3995 329.6223 0001420 153.7712 206.3559 14.41423791    00
Epoch (UTC): 29 March 2026 04:42:16
Eccentricity: 0.0001420
inclination: 86.3995°
perigee height: 753 km
apogee height: 755 km
right ascension of ascending node: 329.6223°
argument of perigee: 153.7712°
revolutions per day: 14.41423791
mean anomaly at epoch: 206.3559°

The dashed part of the orbit path shows where the satellite is in the earth's shadow,  

DLR